Home   Weather   Linz   Past weeks
Flag for Austria

Past Weather in Linz, Upper Austria, Austria — Yesterday and Last 2 Weeks

Now
73 °F

Passing clouds.


Feels Like: 77 °F
Forecast: 85 / 59 °F
Wind: 5 mph from Southeast

Location: Linz / Hoersching-Flughafen

Current Time: Jun 19, 2019 at 11:45:22 pm

Latest Report: Jun 19, 2019 at 10:50 pm


Visibility: N/A

Pressure: 29.86 "Hg

Humidity: 57%

Dew Point: 57 °F

Location of LinzLocation

Past Weather in Linz — Graph

°F

Linz Temperature Yesterday

Maximum temperature yesterday: 84 °F (at 2:50 pm)
Minimum temperature yesterday: 64 °F (at 4:50 am)
Average temperature yesterday: 74 °F

High & Low Weather Summary for the Past Weeks

 TemperatureHumidityPressure
High91 °F (Jun 12, 1:50 pm)94% (Jun 7, 4:50 am)30.27 "Hg (Jun 7, 4:50 am)
Low54 °F (Jun 7, 4:50 am)26% (Jun 12, 2:50 pm)29.68 "Hg (Jun 5, 11:50 pm)
Average72 °F60%29.96 "Hg
* Reported Jun 4 10:20 pm — Jun 19 10:20 pm, Linz. Weather by CustomWeather, © 2019

Note: Actual official high and low records may vary slightly from our data, if they occured in-between our weather recording intervals... More about our weather records

Advertising

Linz Weather History for the Previous 24 Hours

Scroll right to see more
 ConditionsComfort  
Time TempWeatherWind HumidityBarometerVisibility
10:20 pm
Wed, Jun 19
73 °FPassing clouds.3 mph61%29.86 "HgN/A
9:50 pm73 °FPassing clouds.3 mph57%29.86 "HgN/A
9:20 pm75 °FClear.3 mph54%29.86 "HgN/A
8:50 pm77 °FClear.3 mph51%29.86 "HgN/A
8:20 pm79 °FClear.3 mph45%29.86 "HgN/A
7:50 pm81 °FClear.6 mph45%29.86 "HgN/A
7:20 pm82 °FThundershowers. Cloudy.8 mph40%29.83 "HgN/A
6:50 pm82 °FPleasantly warm.8 mph40%29.83 "HgN/A
6:20 pm84 °FPassing clouds.6 mph37%29.83 "HgN/A
5:50 pm86 °FPartly sunny.10 mph33%29.83 "HgN/A
5:20 pm84 °FPartly sunny.8 mph37%29.83 "HgN/A
4:50 pm84 °FPartly sunny.10 mph37%29.83 "HgN/A
4:20 pm84 °FBroken clouds.8 mph40%29.86 "HgN/A
3:50 pm84 °FPartly sunny.9 mph43%29.86 "HgN/A
3:20 pm84 °FPartly sunny.3 mph40%29.86 "HgN/A
2:50 pm84 °FScattered clouds.7 mph40%29.86 "HgN/A
2:20 pm84 °FScattered clouds.7 mph40%29.86 "HgN/A
1:50 pm82 °FScattered clouds.6 mph42%29.89 "HgN/A
1:20 pm82 °FScattered clouds.6 mph45%29.89 "HgN/A
12:50 pm82 °FScattered clouds.3 mph48%29.89 "HgN/A
12:20 pm81 °FScattered clouds.3 mph51%29.89 "HgN/A
11:50 am79 °FScattered clouds.3 mph51%29.92 "HgN/A
11:20 am79 °FPassing clouds.5 mph54%29.92 "HgN/A
10:50 am77 °FPassing clouds.3 mph57%29.92 "HgN/A
10:20 am77 °FPassing clouds.3 mph57%29.92 "HgN/A
9:50 am73 °FSunny.3 mph61%29.92 "Hg10 mi
9:20 am73 °FSunny.2 mph65%29.92 "Hg10 mi
8:50 am70 °FPassing clouds.2 mph69%29.95 "HgN/A
7:50 am68 °FPassing clouds.1 mph69%29.95 "HgN/A
7:20 am66 °FPassing clouds.2 mph78%29.95 "HgN/A
6:50 am66 °FPassing clouds.2 mph78%29.95 "HgN/A
6:20 am63 °FPassing clouds.2 mph83%29.95 "HgN/A
5:50 am61 °FSunny.3 mph88%29.95 "Hg10 mi
5:20 am59 °FSunny.1 mph94%29.95 "Hg10 mi
4:50 am61 °FClear.3 mph88%29.95 "HgN/A
4:20 am61 °FClear.5 mph88%29.95 "HgN/A
3:50 am63 °FClear.2 mph83%29.95 "HgN/A
3:20 am61 °FClear.1 mph88%29.95 "HgN/A
2:50 am63 °FClear.1 mph83%29.95 "HgN/A
2:20 am64 °FClear.1 mph78%29.95 "HgN/A
1:50 am64 °FClear.2 mph83%29.95 "HgN/A
1:20 am66 °FClear.3 mph78%29.95 "HgN/A
12:20 am70 °FClear.6 mph69%29.95 "HgN/A
11:50 pm
Tue, Jun 18
70 °FClear.3 mph69%29.95 "HgN/A
11:20 pm70 °FClear.5 mph69%29.95 "HgN/A
Weather by CustomWeather, © 2019

See weather overview